Location: Brookview Estates
(36.0476°N, 86.6931°W)
Time: 07:18:59
(UTC+00:00)

Cosmos 2242 Rocket - Visible Passes

Search period start: 11 August 2020 00:00
Search period end: 21 August 2020 00:00
Orbit: 618 x 652 km, 82.5° (Epoch: 11 August)

Date Brightness Start Highest point End Pass type
(mag) Time Alt. Az. Time Alt. Az. Time Alt. Az.
11 Aug 5.5 02:22:32 10° NE 02:24:36 16° ENE 02:24:36 16° ENE visible
11 Aug 5.5 03:59:38 10° NNW 04:02:05 26° NW 04:02:05 26° NW visible
12 Aug 4.7 02:43:52 10° NNE 02:46:57 31° NE 02:46:57 31° NE visible
12 Aug 6.3 04:23:05 10° NW 04:24:27 14° WNW 04:24:27 14° WNW visible
13 Aug 4.1 03:05:54 10° N 03:09:20 53° N 03:09:20 53° N visible
14 Aug 5.5 01:52:03 10° NE 01:54:12 13° ENE 01:54:15 13° ENE visible
14 Aug 4.8 03:28:26 10° NNW 03:31:44 38° WNW 03:31:44 38° WNW visible
15 Aug 4.6 02:12:59 10° NNE 02:16:40 28° ENE 02:16:40 28° ENE visible
15 Aug 5.9 03:51:35 10° NW 03:54:10 19° WNW 03:54:10 19° WNW visible
16 Aug 3.5 02:34:52 10° N 02:39:07 63° ENE 02:39:07 63° ENE visible
17 Aug 5.6 01:22:05 10° ENE 01:23:02 11° ENE 01:23:59 10° E visible
17 Aug 4.1 02:57:16 10° NNW 03:01:34 55° W 03:01:36 55° W visible
18 Aug 4.8 01:42:10 10° NNE 01:45:41 23° ENE 01:46:36 21° E visible
18 Aug 5.4 03:20:12 10° NW 03:23:45 24° W 03:24:07 24° W visible
19 Aug 3.7 02:03:53 10° N 02:08:10 50° E 02:09:09 42° ESE visible
19 Aug 6.4 03:44:38 10° WNW 03:45:49 11° W 03:46:39 10° W visible
20 Aug 3.7 02:26:08 10° NNW 02:30:31 70° W 02:31:44 45° SSW visible
